Vorticity
nan nan nan nan nan nan nan nan nan nan nan nan nan nan nan nan nan nan nan nan nan nan nan nan nan nan nan nan nan nan nan nan nan nan nan nan nan nan nan nan nan nan nan nan
nan 10 7 10 10 7 7 7 7 10 13 7 10 9 16 12 8 8 5 5 6 6 8 8 7 7 9 8 6 7 6 6 5 7 8 9 9 8 9 9 8 7 8 nan
nan 7 11 6 7 9 6 7 9 5 9 9 9 12 13 10 9 10 9 10 10 8 5 6 7 6 7 8 9 7 7 5 6 6 6 7 8 9 9 9 10 9 9 nan
nan 13 9 6 9 7 5 9 5 7 8 12 6 11 9 21 15 6 8 8 8 8 6 8 8 8 7 8 8 8 7 7 7 7 6 7 7 7 8 8 8 9 9 nan
nan 9 7 6 10 7 11 11 10 12 7 9 6 11 8 12 16 16 11 8 8 8 8 9 8 7 7 9 8 8 7 6 9 7 6 6 7 7 9 9 8 7 9 nan
nan 7 11 9 11 7 10 8 7 12 11 9 12 6 7 8 5 13 18 11 10 9 8 7 9 8 8 7 8 8 7 6 8 8 7 7 6 6 6 7 8 8 9 nan
nan 8 9 10 8 9 6 8 7 7 11 9 12 9 7 5 11 17 18 13 11 8 8 8 8 6 9 9 6 6 7 6 7 8 7 7 7 8 7 6 8 9 8 nan
nan 8 10 7 11 11 7 8 8 10 6 10 10 5 11 6 8 18 18 18 14 10 8 8 8 7 8 8 8 7 6 6 7 7 7 8 7 6 8 8 8 9 8 nan
nan 9 8 10 12 8 8 9 9 5 8 10 6 5 11 13 10 13 19 21 16 12 10 9 7 8 8 8 9 7 6 7 7 6 7 8 7 8 8 8 7 8 8 nan
nan 13 9 11 6 11 16 4 5 13 13 4 10 11 9 5 11 13 15 14 13 11 10 10 10 8 8 9 9 8 9 7 6 7 6 8 7 7 7 8 9 8 8 nan
nan 10 9 12 11 7 4 6 8 13 8 9 9 9 12 5 11 11 10 12 13 11 9 9 9 9 9 8 8 8 8 8 7 8 7 8 9 8 7 6 9 9 8 nan
nan 13 16 6 5 12 16 11 6 5 7 7 9 8 11 10 11 13 11 12 12 13 10 10 10 11 11 9 8 8 8 8 7 8 8 8 7 8 7 7 8 10 7 nan
nan 9 9 10 12 13 12 11 9 10 18 12 2 10 6 5 11 13 12 14 12 14 12 10 10 11 9 9 9 9 9 8 8 8 8 8 8 8 8 8 8 9 9 nan
nan 12 12 8 3 5 5 11 10 6 7 14 6 6 3 8 11 10 14 15 14 13 11 9 9 9 10 9 9 9 9 10 9 8 8 7 8 8 8 9 9 9 9 nan
nan 8 10 10 9 9 9 5 8 9 10 5 11 9 10 9 10 11 10 14 11 11 11 9 9 9 9 9 9 9 10 10 10 9 8 8 8 8 9 10 9 9 9 nan
nan 11 10 11 13 10 13 12 12 11 10 9 11 11 9 7 11 14 13 11 9 11 11 9 10 12 11 9 8 8 10 11 9 10 8 8 8 10 9 8 9 8 9 nan
nan 10 10 9 7 14 16 16 14 10 11 16 9 6 2 8 11 11 13 14 9 11 12 14 15 11 9 10 10 10 9 9 10 9 9 9 9 8 8 9 9 8 10 nan
nan 9 10 9 11 13 7 12 18 12 3 9 7 6 10 13 11 15 19 11 10 14 17 14 14 16 14 11 9 9 12 11 10 9 9 9 9 8 9 9 8 8 11 nan
nan 8 10 13 9 8 11 2 6 9 5 3 6 9 13 21 23 17 13 11 14 11 11 15 17 17 18 13 12 11 11 11 9 10 9 9 9 9 9 8 8 8 9 nan
nan 10 10 9 12 8 -1 -0 13 17 1 -7 8 8 10 21 20 -1 -4 17 22 18 14 14 14 15 13 14 14 11 10 10 8 10 10 10 10 9 8 9 9 9 9 nan
nan 12 9 7 7 2 -1 14 30 15 -5 -1 10 10 13 13 6 4 10 17 21 18 15 15 14 12 10 12 13 10 10 10 11 9 10 10 11 10 9 9 9 10 10 nan
nan 10 10 9 9 2 5 19 14 6 7 10 9 10 11 9 9 12 14 14 13 15 24 19 11 12 13 12 10 11 8 11 10 12 12 11 9 8 12 11 9 11 10 nan
nan 10 11 10 7 5 5 9 6 10 13 12 9 8 12 12 10 11 10 11 13 15 21 23 19 13 13 14 11 9 9 11 13 11 10 11 11 11 10 11 9 10 11 nan
nan 11 8 9 9 5 12 7 5 10 10 10 13 14 12 10 10 11 11 9 10 10 16 23 23 17 12 15 16 9 14 15 13 10 9 10 10 10 9 8 10 9 8 nan
nan 7 12 9 2 16 10 -2 4 9 10 9 13 13 12 13 12 11 11 10 11 10 12 15 16 16 21 21 14 14 12 12 10 10 10 10 11 11 10 10 9 9 9 nan
nan nan nan nan nan nan nan nan nan nan nan nan nan nan nan nan nan nan nan nan nan nan nan nan nan nan nan nan nan nan nan nan nan nan nan nan nan nan nan nan nan nan nan nan
CAPE
0 0 0 0 0 0 0 0 0 0 23 37 4 0 258 64 19 63 49 29 12 28 0 0 0 0 0 0 0 23 191 44 0 120 314 435 283 93 343 446 541 451 331 980
0 0 0 0 0 0 0 0 0 0 0 2 0 0 189 134 60 19 38 20 3 0 0 0 0 0 0 0 0 8 147 9 8 83 119 228 178 94 226 341 307 397 320 462
0 0 0 0 0 0 0 0 0 0 0 0 0 0 0 163 139 30 19 20 12 0 0 0 0 0 0 0 0 0 44 0 41 45 170 342 105 79 234 194 141 267 363 306
0 0 0 0 0 0 0 0 0 0 0 0 0 0 0 0 162 79 3 14 10 0 0 0 0 0 0 0 0 0 0 0 56 27 292 447 338 240 160 175 82 115 222 245
0 0 0 0 0 0 0 0 0 0 0 0 0 0 0 0 10 126 78 13 10 0 0 0 0 0 0 0 0 0 4 11 88 28 150 278 177 61 26 48 73 63 118 300
0 0 0 0 0 0 0 0 0 0 0 0 0 0 0 0 0 0 71 85 9 4 0 0 0 0 0 0 0 0 25 91 20 19 51 314 315 178 105 185 284 128 85 292
0 0 0 0 0 0 0 0 0 0 0 0 0 0 0 0 0 0 0 191 54 0 0 0 0 0 0 0 0 9 92 192 35 17 40 108 280 217 253 219 250 190 132 333
0 0 0 0 0 0 0 0 0 0 0 0 0 0 0 0 0 0 0 62 210 73 0 0 0 0 0 0 0 14 150 206 153 109 74 107 120 168 122 171 178 200 122 237
0 0 0 0 0 0 0 0 0 0 0 0 0 0 0 0 0 395 101 14 222 156 14 0 0 0 0 0 0 0 150 181 251 268 207 188 318 358 290 141 108 382 379 535
0 0 0 0 0 0 0 0 0 0 0 0 0 0 0 0 0 422 100 110 191 223 51 0 0 0 0 0 0 0 104 174 247 310 312 314 390 428 461 437 349 350 522 605
0 0 0 0 0 0 0 0 0 0 0 0 0 0 0 0 0 183 277 140 196 241 73 7 0 0 0 0 0 0 109 178 283 297 318 321 268 290 361 406 378 401 367 461
0 0 0 0 0 0 0 0 0 0 0 0 0 0 0 0 0 59 200 245 181 226 167 51 26 0 0 7 7 0 46 306 332 347 315 233 170 192 274 301 286 141 233 246
0 0 0 0 0 0 0 0 0 0 0 0 0 0 0 0 0 0 24 240 213 190 227 159 105 102 20 0 41 2 0 262 361 429 391 273 184 82 150 198 238 51 141 182
0 0 0 0 0 0 0 0 0 0 0 0 0 0 0 0 0 0 0 197 179 104 149 201 157 145 153 6 56 78 8 25 263 365 421 351 239 156 150 99 54 32 56 149
0 0 0 0 0 0 0 0 0 0 0 0 0 0 0 0 0 0 0 0 15 16 50 117 204 193 146 120 48 140 97 40 123 260 374 383 320 257 237 119 38 26 31 72
0 0 0 0 0 0 0 0 0 0 0 0 0 0 0 0 0 0 0 0 0 0 0 67 124 220 196 179 102 161 153 110 108 153 284 290 241 237 172 129 102 40 53 119
0 0 0 0 0 0 0 0 0 30 143 0 0 0 0 125 13 0 0 1 7 0 0 0 50 221 254 221 214 168 273 237 189 187 221 256 196 128 105 118 122 73 104 175
0 0 0 0 0 0 0 0 0 79 149 62 42 179 451 452 267 54 0 54 66 80 34 2 0 108 265 247 247 146 199 353 344 313 344 388 335 273 233 290 350 401 405 411
0 0 0 0 0 0 0 0 0 0 23 0 0 190 585 648 26 0 0 6 9 11 0 16 29 83 221 253 258 202 142 286 465 480 502 539 496 424 382 424 524 620 606 687
0 0 0 0 0 0 0 39 0 1 15 0 0 86 487 314 7 0 453 473 25 0 11 6 60 146 200 228 245 218 213 254 469 584 620 638 604 543 519 563 602 716 725 746
0 0 0 0 0 0 37 32 18 74 2 0 0 121 309 446 425 334 623 108 0 0 0 2 185 208 292 280 265 285 308 388 472 576 626 652 693 686 684 714 737 785 798 902
0 0 0 0 0 0 6 86 15 9 3 3 5 59 90 166 264 249 317 466 935 1116 28 0 218 300 322 329 320 326 336 457 561 601 658 699 762 794 812 834 856 854 836 869
0 0 0 0 0 1 0 46 12 10 12 4 0 22 64 19 122 75 195 313 672 897 1501 27 62 278 218 250 384 381 408 332 306 613 717 711 769 850 950 875 892 923 975 1083
0 0 30 0 6 0 0 0 4 1 8 4 0 27 48 19 7 47 92 294 491 573 705 822 29 40 80 128 359 443 313 255 269 428 606 672 759 805 947 997 1017 1040 1081 1171
0 28 0 0 3 0 0 0 2 4 2 1 0 29 22 26 2 9 24 28 117 283 474 672 1007 531 119 46 177 124 105 259 386 441 470 606 783 566 934 1062 1141 1227 1238 1229
4 0 1 7 0 2 0 0 1 1 3 0 0 7 6 6 16 14 5 8 9 21 272 141 106 240 656 494 407 282 40 307 528 576 529 539 659 749 861 968 1075 603 438 920